Irving North's Hourly Summary for Friday, March 17, 2017
Hour Temp
(f)
RH
(%)
Solar Rad.
(MJ/m2)
Rainfall
(in)
Wind
(mph)
3/17/2017 12:00 AM 67 76 0 0 8.52
3/17/2017 1:00 AM 66 79 0 0 8.74
3/17/2017 2:00 AM 66 81 0 0 8.52
3/17/2017 3:00 AM 66 81 0 0 8.37
3/17/2017 4:00 AM 66 77 0 0 8.55
3/17/2017 5:00 AM 67 77 0 0 8.69
3/17/2017 6:00 AM 67 77 0 0 8.87
3/17/2017 7:00 AM 67 75 0.01 0 9
3/17/2017 8:00 AM 67 75 0.17 0 9.47
3/17/2017 9:00 AM 68 74 0.49 0 10.73
3/17/2017 10:00 AM 69 72 0.71 0 11.25
3/17/2017 11:00 AM 71 68 1.24 0 11.75
3/17/2017 12:00 PM 73 62 2.02 0 12.12
3/17/2017 1:00 PM 74 62 1.38 0 10.58
3/17/2017 2:00 PM 75 61 1.83 0 10.29
3/17/2017 3:00 PM 75 60 1.72 0 10.74
3/17/2017 4:00 PM 76 58 1.18 0 10.67
3/17/2017 5:00 PM 76 56 0.9 0 9.54
3/17/2017 6:00 PM 76 56 0.54 0 9.05
3/17/2017 7:00 PM 75 58 0.06 0 6.39
3/17/2017 8:00 PM 74 58 0 0 2.57
3/17/2017 9:00 PM 73 64 0 0 2.54
3/17/2017 10:00 PM 72 66 0 0 1.88
3/17/2017 11:00 PM 72 64 0 0 4.48
Data Summary 70 68 12.25 0.00 8.47